Tracking 18673 objects as of 27-June-2017
HD Live streaming from Space Station
objects crossing your sky now

COSMOS 778


10-day predictions
COSMOS 778 is classified as:


NORAD ID: 8419
Int'l Code: 1975-103A
Perigee: 974.1 km
Apogee: 1,006.5 km
Inclination: 83.0 °
Period: 104.8 minutes
Semi major axis: 7361 km
RCS: 2.3884 m2 (large)
Launch date: November 4, 1975
Source: Commonwealth of Independent States (former USSR) (CIS)
Launch site: PLESETSK MISSILE AND SPACE COMPLEX (PKMTR)
Your satellite tracking list
Your tracking list is empty





NASA's NSSDC Master Catalog

Two Line Element Set (TLE):
1  8419U 75103A   17177.67057024 +.00000019 +00000-0 +41617-5 0  9996
2  8419 082.9730 189.6947 0021960 003.9725 133.3421 13.74581424088294
Source of the keplerian elements: AFSPC